Tracking 30510 objects as of 22-May-2025
HD Live streaming from Space Station
objects crossing your sky now

HULIANWANG DIGUI-16

Track HULIANWANG DIGUI-16 now!
10-day predictions


NORAD ID: 62976
Int'l Code: 2025-030F
Perigee: 1,123.4 km
Apogee: 1,125.3 km
Inclination: 50.0 °
Period: 107.6 minutes
Semi major axis: 7495 km
RCS: Unknown
Launch date: February 11, 2025
Source: People's Republic of China (PRC)
Launch site: Wenchang Satellite Launch Center (WSC)
Your satellite tracking list
Your tracking list is empty




NASA's NSSDC Master Catalog

Two Line Element Set (TLE):
1 62976U 25030F   25141.60730556 -.00000083  00000-0  83793-4 0  9991
2 62976  50.0032 200.2020 0001288 274.3709  85.7020 13.37867736 13770
Source of the keplerian elements: AFSPC